[[{"header":{"parameterUnit":"m.s-1","parameterCategory":1,"la1":30.2991,"la2":30.254,"lo1":-89.0895,"lo2":-89.0444,"dy":0.0017,"dx":0.0017,"nx":28,"ny":28,"refTime":"2023-10-31T21:00:00:Z","depth":0,"parameterNumber":2,"parameterNumberName":"U-component_of_WINDS"},"data":[0,0,0,0,0,0,0,0,0,0,0,0,0,0,0,0,0,0,0,0,0,0,0,0,0,0,0,0,0,0,0,0,0,0,0,0,0,0,0,0,0,0,0,0,0,0,0,0,0,0,0,0,0,0,0,0,0,0,-5.275,-5.2751,0,-5.2852,-5.2853,-5.2854,-5.2657,-5.265,-5.2644,-5.2638,-5.2746,-5.2755,-5.2764,0,0,0,0,0,0,0,0,0,0,0,0,0,-5.2386,-5.2393,-5.2749,-5.2751,-5.2752,-5.2852,-5.2853,-5.2854,-5.2658,-5.265,-5.2642,-5.2635,-5.2743,-5.2754,-5.2764,0,0,0,0,0,0,0,0,0,0,0,0,0,-5.2522,-5.2396,-5.2749,-5.2666,-5.2659,-5.2851,-5.2853,-5.2855,-5.266,-5.265,-5.264,-5.2631,-5.274,-5.2753,-5.2766,-5.3045,0,0,-5.2807,-5.2813,0,0,0,0,0,0,0,0,-5.2514,-5.2535,-5.2677,-5.2672,-5.2665,-5.2731,-5.2764,-5.2919,-5.2662,-5.266,-5.2637,-5.2626,-5.2749,-5.2761,-5.2802,-5.305,-5.3054,-5.2808,-5.2816,-5.2822,-5.2826,0,0,0,0,0,0,0,-5.2505,-5.253,-5.279,-5.2679,-5.2672,-5.2624,-5.2632,-5.2793,-5.2758,-5.2659,-5.2645,-5.266,-5.2744,-5.279,-5.2803,-5.3056,-5.2808,-5.282,-5.2828,-5.2833,-5.3536,-5.3546,0,0,0,0,0,0,-5.2506,-5.2523,-5.2787,-5.2793,-5.2564,-5.2638,-5.2648,-5.272,-5.2756,-5.2752,-5.2668,-5.265,-5.2771,-5.2788,-5.2806,-5.3134,-5.2822,-5.2835,-5.2842,-5.3526,-5.3539,-5.355,0,0,0,0,0,0,-5.2499,-5.2531,-5.2782,-5.2654,-5.2683,-5.2655,-5.2738,-5.2727,-5.2772,-5.2762,-5.2756,-5.2721,-5.2764,-5.2787,-5.2986,-5.3135,-5.2841,-5.2853,-5.3513,-5.353,-5.3544,-5.3794,0,0,0,0,0,0,-5.2489,-5.253,-5.2635,-5.2658,-5.269,-5.2961,-5.2747,-5.2736,-5.2796,-5.2773,-5.281,-5.2807,-5.2758,-5.2967,-5.3,-5.3149,-5.2863,-5.35,-5.3521,-5.3539,-5.3772,-5.3816,-5.3854,0,0,0,0,0,-5.2477,-5.2702,-5.2642,-5.2675,-5.2821,-5.297,-5.2988,-5.2927,-5.2808,-5.2914,-5.2908,-5.2806,-5.3114,-5.2989,-5.3024,-5.3179,-5.349,-5.3515,-5.3538,-5.3754,-5.3807,-5.3853,0,0,0,0,0,0,-5.2699,-5.2704,-5.2637,-5.2876,-5.2924,-5.2936,-5.3068,-5.2986,-5.307,-5.3046,-5.2967,-5.2977,-5.3192,-5.3205,-5.3067,-5.345,-5.3282,-5.3314,-5.3434,-5.3485,-5.3525,-5.3518,-5.2875,0,0,0,0,0,-5.2776,-5.2896,-5.2893,-5.3105,-5.3132,-5.3097,-5.3159,-5.3108,-5.3155,-5.3175,-5.3182,-5.3233,-5.334,-5.3413,-5.3512,-5.3773,-5.3778,-5.3896,-5.3937,-5.3971,-5.4,-5.4138,-5.419,-5.3629,-5.3628,-5.3628,0,0,-5.2936,-5.2953,-5.3034,-5.315,-5.3181,-5.3307,-5.3115,-5.3257,-5.335,-5.3196,-5.3384,-5.3392,-5.3443,-5.3674,-5.3776,-5.3692,-5.4156,-5.4001,-5.4028,-5.4039,-5.4168,-5.4221,-5.4268,-5.3645,-5.3642,-5.3639,0,0,-5.3292,-5.3318,-5.3496,-5.3531,-5.3579,-5.3554,-5.3597,-5.3622,-5.3621,-5.3808,-5.3695,-5.3804,-5.3992,-5.4032,-5.4078,-5.4448,-5.4357,-5.4483,-5.4697,-5.4832,-5.4877,-5.4915,-5.5047,-5.5096,-5.4511,-5.4512,-5.4512,0,-5.3486,-5.367,-5.3599,-5.3748,-5.3802,-5.3667,-5.3847,-5.3885,-5.3965,-5.4005,-5.3909,-5.4141,-5.4165,-5.4403,-5.4494,-5.4535,-5.4582,-5.4478,-5.4876,-5.4914,-5.4949,-5.5074,-5.5124,-5.4527,-5.4525,-5.4524,-5.4522,0,-5.3905,-5.4035,-5.4174,-5.4252,-5.4322,-5.4486,-5.444,-5.4519,-5.4461,-5.4446,-5.4638,-5.4663,-5.4764,-5.4816,-5.4762,-5.5047,-5.4993,-5.4888,-5.4717,-5.5019,-5.5135,-5.5182,-5.4548,-5.4543,-5.4538,-5.4535,0,0,-5.4406,-5.4441,-5.4493,-5.4526,-5.457,-5.4669,-5.4827,-5.4924,-5.4994,-5.5053,-5.5184,-5.5345,-5.5247,-5.5299,-5.5248,-5.5367,-5.5658,-5.5246,-5.5246,-5.5322,-5.5973,-5.6053,-5.6109,-5.5598,-5.5607,-5.5614,-5.5969,0,-5.4759,-5.503,-5.4969,-5.5236,-5.5355,-5.5227,-5.5365,-5.5407,-5.5397,-5.5497,-5.5485,-5.5601,-5.5463,-5.5494,-5.5606,-5.5599,-5.5788,-5.5573,-5.5719,-5.5726,-5.5711,-5.617,-5.6254,-5.6588,-5.6014,-5.6022,-5.6027,0,-5.5207,-5.5281,-5.556,-5.5583,-5.563,-5.5755,-5.5839,-5.5936,-5.598,-5.5965,-5.6022,-5.5948,-5.6104,-5.5932,-5.6147,-5.6002,-5.6058,-5.6064,-5.6076,-5.6087,-5.5895,-5.6194,-5.6693,-5.6744,-5.6098,-5.6092,-5.6087,0,-5.5544,-5.5714,-5.5902,-5.5935,-5.5966,-5.6057,-5.6074,-5.6109,-5.6171,-5.6244,-5.6284,-5.6376,-5.6426,-5.6499,-5.6451,-5.633,-5.6675,-5.6498,-5.6667,-5.6668,-5.6745,-5.6741,-5.7261,-5.6783,-5.6782,-5.6781,-5.678,0,-5.5944,-5.612,-5.6053,-5.617,-5.6362,-5.6291,-5.6484,-5.6486,-5.6519,-5.6633,-5.6529,-5.6639,-5.6569,-5.6674,-5.6638,-5.6821,-5.6845,-5.6837,-5.6826,-5.6847,-5.6848,-5.6883,-5.6858,-5.6794,-5.6791,-5.6788,-5.6786,0,-5.6353,-5.6316,-5.6513,-5.6526,-5.6533,-5.6675,-5.6686,-5.6794,-5.6775,-5.6922,-5.6952,-5.6924,-5.7041,-5.7,-5.7127,-5.7103,-5.7336,-5.7295,-5.7321,-5.7311,-5.7481,-5.7466,-5.8042,-5.8114,-5.7589,-5.7594,-5.7599,0,-5.6611,-5.6743,-5.677,-5.6838,-5.6863,-5.6975,-5.7037,-5.6972,-5.7041,-5.7101,-5.7202,-5.731,-5.7393,-5.7587,-5.7578,-5.7675,-5.7634,-5.7829,-5.7648,-5.7665,-5.7637,-5.763,-5.7642,-5.7866,-5.7872,-5.7877,-5.7881,0,-5.7073,-5.7048,-5.714,-5.7228,-5.7304,-5.737,-5.7426,-5.7489,-5.7427,-5.751,-5.7628,-5.7692,-5.782,-5.7929,-5.8015,-5.8033,-5.7949,-5.7938,-5.7982,-5.8005,-5.8015,-5.8011,-5.742,-5.7925,-5.7921,-5.7918,-5.7915,-5.7913,-5.7414,-5.7525,-5.756,-5.7667,-5.7702,-5.7757,-5.7859,-5.7852,-5.7949,-5.8047,-5.8003,-5.814,-5.818,-5.8287,-5.8317,-5.8424,-5.8348,-5.8412,-5.8428,-5.8445,-5.8467,-5.7998,-5.8439,-5.8438,-5.8437,-5.8436,-5.8435,0,-5.787,-5.7886,-5.7985,-5.8066,-5.8151,-5.8061,-5.8118,-5.8195,-5.8316,-5.836,-5.8443,-5.8579,-5.8684,-5.8683,-5.878,-5.8866,-5.8829,-5.8893,-5.8887,-5.8892,-5.8529,-5.8481,-5.8921,-5.8921,-5.8921,-5.8921,-5.8921,-5.8921,-5.8117,-5.8299,-5.8278,-5.8477,-5.8491,-5.8623,-5.8664,-5.8714,-5.8748,-5.8904,-5.899,-5.8988,-5.9015,-5.9113,-5.9205,-5.9202,-5.9243,-5.9322,-5.9305,-5.8966,-5.8918,-5.8872,-5.8826,-5.9332,-5.9332,-5.9659,-5.9662,-5.9664]},{"header":{"parameterUnit":"m.s-1","parameterCategory":1,"la1":30.2991,"la2":30.254,"lo1":-89.0895,"lo2":-89.0444,"dy":0.0017,"dx":0.0017,"nx":28,"ny":28,"refTime":"2023-10-31T21:00:00:Z","depth":0,"parameterNumber":3,"parameterNumberName":"V-component_of_WINDS"},"data":[0,0,0,0,0,0,0,0,0,0,0,0,0,0,0,0,0,0,0,0,0,0,0,0,0,0,0,0,0,0,0,0,0,0,0,0,0,0,0,0,0,0,0,0,0,0,0,0,0,0,0,0,0,0,0,0,0,0,-3.6198,-3.6198,0,-3.6218,-3.6218,-3.6218,-3.6202,-3.6202,-3.6201,-3.62,-3.6218,-3.6219,-3.622,0,0,0,0,0,0,0,0,0,0,0,0,0,-3.6141,-3.6142,-3.6198,-3.6198,-3.6198,-3.6218,-3.6218,-3.6218,-3.6202,-3.6202,-3.6201,-3.62,-3.6218,-3.6219,-3.622,0,0,0,0,0,0,0,0,0,0,0,0,0,-3.6164,-3.6142,-3.6198,-3.6193,-3.6192,-3.6218,-3.6218,-3.6218,-3.6202,-3.6201,-3.62,-3.62,-3.6217,-3.6219,-3.6221,-3.6251,0,0,-3.6226,-3.6226,0,0,0,0,0,0,0,0,-3.6162,-3.6166,-3.6193,-3.6193,-3.6193,-3.6206,-3.6204,-3.6229,-3.6203,-3.6199,-3.62,-3.6199,-3.6215,-3.6217,-3.6223,-3.6252,-3.6253,-3.6226,-3.6227,-3.6227,-3.6228,0,0,0,0,0,0,0,-3.6161,-3.6165,-3.6206,-3.6194,-3.6193,-3.6188,-3.619,-3.6209,-3.6212,-3.6199,-3.6198,-3.62,-3.6215,-3.6221,-3.6223,-3.6253,-3.6226,-3.6227,-3.6228,-3.6229,-3.6304,-3.6305,0,0,0,0,0,0,-3.616,-3.6164,-3.6205,-3.6206,-3.6175,-3.619,-3.6192,-3.6203,-3.6212,-3.6212,-3.6201,-3.62,-3.6219,-3.6221,-3.6223,-3.6257,-3.6227,-3.6229,-3.623,-3.6303,-3.6304,-3.6305,0,0,0,0,0,0,-3.6159,-3.6164,-3.6204,-3.6185,-3.6189,-3.6192,-3.6204,-3.6204,-3.621,-3.6214,-3.6214,-3.6208,-3.6218,-3.6221,-3.6243,-3.6257,-3.623,-3.6231,-3.6301,-3.6303,-3.6304,-3.6325,0,0,0,0,0,0,-3.6158,-3.6164,-3.6177,-3.6185,-3.619,-3.6225,-3.6205,-3.6205,-3.6214,-3.6212,-3.622,-3.622,-3.6217,-3.6241,-3.6245,-3.6259,-3.6233,-3.63,-3.6302,-3.6304,-3.6323,-3.6327,-3.6331,0,0,0,0,0,-3.6156,-3.6182,-3.6178,-3.6183,-3.6207,-3.6226,-3.6229,-3.6226,-3.6215,-3.6227,-3.6228,-3.622,-3.6255,-3.6244,-3.6248,-3.6263,-3.6299,-3.6302,-3.6304,-3.6322,-3.6327,-3.6331,0,0,0,0,0,0,-3.6176,-3.6183,-3.6178,-3.6209,-3.6217,-3.6224,-3.6239,-3.6232,-3.6243,-3.6241,-3.6236,-3.6238,-3.6261,-3.6264,-3.6251,-3.629,-3.6275,-3.6278,-3.6287,-3.6292,-3.6296,-3.6294,-3.6234,0,0,0,0,0,-3.6184,-3.62,-3.6205,-3.6232,-3.6236,-3.6237,-3.6245,-3.6242,-3.625,-3.6253,-3.6257,-3.6264,-3.6276,-3.6284,-3.6296,-3.6324,-3.6324,-3.6336,-3.634,-3.6343,-3.6345,-3.6356,-3.6361,-3.6312,-3.6312,-3.6312,0,0,-3.62,-3.6206,-3.6217,-3.6236,-3.6242,-3.6256,-3.624,-3.6257,-3.6268,-3.6256,-3.6276,-3.6279,-3.6286,-3.6311,-3.6321,-3.6314,-3.6358,-3.6346,-3.6348,-3.6349,-3.6359,-3.6364,-3.6368,-3.6314,-3.6314,-3.6313,0,0,-3.6237,-3.6245,-3.6266,-3.6272,-3.6281,-3.6281,-3.6286,-3.6293,-3.6294,-3.6315,-3.6305,-3.6317,-3.634,-3.6344,-3.6349,-3.6385,-3.6377,-3.6389,-3.6408,-3.6419,-3.6423,-3.6426,-3.6436,-3.644,-3.6392,-3.6392,-3.6392,0,-3.6257,-3.628,-3.6278,-3.6295,-3.6302,-3.6292,-3.6311,-3.6317,-3.6329,-3.6333,-3.6325,-3.6351,-3.6355,-3.6379,-3.6387,-3.6393,-3.6396,-3.6388,-3.6423,-3.6426,-3.6429,-3.6439,-3.6443,-3.6393,-3.6393,-3.6393,-3.6393,0,-3.6301,-3.6318,-3.6333,-3.6345,-3.6354,-3.6372,-3.637,-3.6379,-3.6375,-3.6375,-3.6394,-3.6399,-3.641,-3.6416,-3.6412,-3.6438,-3.6433,-3.6424,-3.6408,-3.6435,-3.6444,-3.6448,-3.6395,-3.6395,-3.6394,-3.6394,0,0,-3.6353,-3.6361,-3.6367,-3.637,-3.6378,-3.639,-3.6406,-3.6417,-3.6424,-3.6432,-3.6444,-3.6462,-3.6453,-3.6459,-3.6455,-3.6466,-3.649,-3.6455,-3.6455,-3.6459,-3.6515,-3.652,-3.6525,-3.6485,-3.6485,-3.6486,-3.6514,0,-3.6388,-3.6418,-3.6414,-3.6442,-3.6455,-3.6444,-3.6458,-3.6463,-3.6463,-3.6473,-3.6472,-3.6484,-3.6473,-3.6476,-3.6485,-3.6485,-3.6501,-3.6483,-3.6494,-3.6494,-3.649,-3.653,-3.6536,-3.6562,-3.6517,-3.6518,-3.6519,0,-3.6434,-3.6443,-3.6472,-3.6475,-3.648,-3.6493,-3.6501,-3.6511,-3.6516,-3.6515,-3.652,-3.6514,-3.6528,-3.6513,-3.6531,-3.6519,-3.6523,-3.6523,-3.6524,-3.6524,-3.6507,-3.6528,-3.6571,-3.6574,-3.6524,-3.6524,-3.6523,0,-3.6465,-3.6485,-3.6503,-3.6507,-3.6512,-3.652,-3.6522,-3.6526,-3.6532,-3.6539,-3.6542,-3.6551,-3.6555,-3.6561,-3.6556,-3.6546,-3.6574,-3.6559,-3.6571,-3.6571,-3.6577,-3.6576,-3.6618,-3.6583,-3.6582,-3.6582,-3.6582,0,-3.6504,-3.6521,-3.6517,-3.6528,-3.6546,-3.6541,-3.6558,-3.6559,-3.6562,-3.6572,-3.6563,-3.6572,-3.6567,-3.6575,-3.6571,-3.6585,-3.6588,-3.6586,-3.6584,-3.6585,-3.6585,-3.6587,-3.6584,-3.6583,-3.6583,-3.6583,-3.6583,0,-3.6541,-3.654,-3.6558,-3.6561,-3.6561,-3.6574,-3.6575,-3.6585,-3.6583,-3.6596,-3.6598,-3.6596,-3.6604,-3.6601,-3.661,-3.6608,-3.6625,-3.6622,-3.6623,-3.6622,-3.6633,-3.6631,-3.6676,-3.6681,-3.6644,-3.6645,-3.6645,0,-3.6566,-3.6578,-3.6581,-3.6587,-3.659,-3.66,-3.6605,-3.66,-3.6605,-3.661,-3.6618,-3.6627,-3.6633,-3.6647,-3.6645,-3.6651,-3.6647,-3.6663,-3.6648,-3.6648,-3.6645,-3.6643,-3.6643,-3.6665,-3.6666,-3.6666,-3.6666,0,-3.6607,-3.6605,-3.6613,-3.6621,-3.6627,-3.6633,-3.6637,-3.6642,-3.6637,-3.6644,-3.6652,-3.6657,-3.6666,-3.6673,-3.6678,-3.6679,-3.6671,-3.6671,-3.6673,-3.6674,-3.6673,-3.6671,-3.6629,-3.667,-3.6669,-3.6669,-3.6669,-3.6669,-3.6637,-3.6646,-3.6649,-3.6658,-3.6661,-3.6664,-3.6673,-3.6672,-3.6679,-3.6686,-3.6682,-3.6691,-3.6693,-3.6699,-3.6701,-3.6707,-3.6701,-3.6705,-3.6706,-3.6707,-3.6707,-3.6674,-3.6708,-3.6708,-3.6708,-3.6708,-3.6708,0,-3.6676,-3.6677,-3.6685,-3.6691,-3.6697,-3.6689,-3.6693,-3.6699,-3.6707,-3.671,-3.6715,-3.6724,-3.673,-3.6729,-3.6734,-3.6739,-3.6735,-3.674,-3.6739,-3.6739,-3.6714,-3.671,-3.6743,-3.6743,-3.6743,-3.6743,-3.6743,-3.6743,-3.6697,-3.6712,-3.6709,-3.6724,-3.6724,-3.6734,-3.6736,-3.6739,-3.674,-3.675,-3.6755,-3.6754,-3.6754,-3.6759,-3.6764,-3.6763,-3.6764,-3.677,-3.6768,-3.6744,-3.6741,-3.6738,-3.6734,-3.6771,-3.6771,-3.6792,-3.6792,-3.6792]}]]